When you browse on this site, cookies collect data to enhance your experience and personalize the content and advertising you see.
Visit our Privacy Policy to learn more. By continuing to use the site, you agree to this use of cookies and data.
  • In Latvia
  • List of Countries
  • For 7 days
  • Water Temperature
  • Satellite Maps
  • Weather Map
  • Weather Widgets
  • user-avatar
    Login

    Hourly Weather Dubendorf

    Today, 18 July, Thursday

    Time Temperature Precipitation Wind Pressure Humidity
    00:00 +16°C° 0 mm 1 mps 716 mmHg 74%
    01:00 +16°C° 0 mm 0 mps 715 mmHg 72%
    02:00 +15°C° 0 mm 0 mps 715 mmHg 74%
    03:00 +15°C° 0 mm 1 mps 715 mmHg 76%
    04:00 +15°C° 0 mm 1 mps 715 mmHg 78%
    05:00 +16°C° 0 mm 1 mps 715 mmHg 76%
    06:00 +18°C° 0 mm 1 mps 715 mmHg 74%
    07:00 +19°C° 0 mm 1 mps 716 mmHg 68%
    08:00 +21°C° 0 mm 1 mps 716 mmHg 61%
    09:00 +23°C° 0 mm 2 mps 716 mmHg 54%
    10:00 +25°C° 0 mm 3 mps 717 mmHg 46%
    11:00 +26°C° 0 mm 3 mps 717 mmHg 42%
    12:00 +27°C° 0 mm 3 mps 717 mmHg 39%
    13:00 +28°C° 0 mm 3 mps 717 mmHg 35%
    14:00 +28°C° 0 mm 3 mps 717 mmHg 37%
    15:00 +27°C° 0 mm 2 mps 717 mmHg 39%
    16:00 +27°C° 0 mm 2 mps 717 mmHg 41%
    17:00 +26°C° 0 mm 2 mps 717 mmHg 49%
    18:00 +24°C° 0 mm 1 mps 717 mmHg 57%
    19:00 +21°C° 0 mm 0 mps 716 mmHg 65%
    20:00 +21°C° 0 mm 1 mps 717 mmHg 67%
    21:00 +20°C° 0 mm 1 mps 717 mmHg 69%
    22:00 +19°C° 0 mm 1 mps 717 mmHg 71%
    23:00 +18°C° 0 mm 1 mps 717 mmHg 73%

    Tomorrow, 19 July, Friday

    Time Temperature Precipitation Wind Pressure Humidity
    00:00 +18°C° 0 mm 1 mps 717 mmHg 76%
    01:00 +16°C° 0 mm 1 mps 717 mmHg 78%
    02:00 +16°C° 0 mm 1 mps 717 mmHg 80%
    03:00 +16°C° 0 mm 1 mps 717 mmHg 81%
    04:00 +14°C° 0 mm 0 mps 717 mmHg 82%
    05:00 +15°C° 0 mm 0 mps 718 mmHg 81%
    06:00 +16°C° 0 mm 0 mps 718 mmHg 79%
    07:00 +17°C° 0 mm 0 mps 718 mmHg 78%
    08:00 +19°C° 0 mm 0 mps 718 mmHg 71%
    09:00 +23°C° 0 mm 1 mps 718 mmHg 63%
    10:00 +25°C° 0 mm 1 mps 719 mmHg 56%
    11:00 +27°C° 0 mm 1 mps 718 mmHg 52%
    12:00 +28°C° 0 mm 1 mps 718 mmHg 47%
    13:00 +29°C° 0 mm 1 mps 718 mmHg 43%
    14:00 +29°C° 0 mm 2 mps 718 mmHg 43%
    15:00 +29°C° 0 mm 2 mps 718 mmHg 44%
    16:00 +29°C° 0 mm 2 mps 718 mmHg 44%
    17:00 +27°C° 0 mm 2 mps 718 mmHg 52%
    18:00 +26°C° 0 mm 1 mps 718 mmHg 61%
    19:00 +25°C° 0 mm 1 mps 718 mmHg 69%
    20:00 +23°C° 0 mm 1 mps 718 mmHg 75%
    21:00 +21°C° 0 mm 1 mps 718 mmHg 80%
    22:00 +17°C° 0 mm 0 mps 718 mmHg 86%
    23:00 +16°C° 0 mm 0 mps 718 mmHg 87%

    Day after tomorrow, 20 July, Saturday

    Time Temperature Precipitation Wind Pressure Humidity
    00:00 +16°C° 0 mm 0 mps 718 mmHg 89%
    01:00 +15°C° 0 mm 0 mps 718 mmHg 90%
    02:00 +15°C° 0 mm 0 mps 718 mmHg 91%
    03:00 +15°C° 0 mm 0 mps 718 mmHg 91%
    04:00 +14°C° 0 mm 0 mps 718 mmHg 91%
    05:00 +16°C° 0 mm 0 mps 718 mmHg 87%
    06:00 +17°C° 0 mm 0 mps 718 mmHg 84%
    07:00 +18°C° 0 mm 0 mps 718 mmHg 80%
    08:00 +21°C° 0 mm 0 mps 718 mmHg 71%
    09:00 +24°C° 0 mm 0 mps 719 mmHg 61%
    10:00 +26°C° 0 mm 0 mps 719 mmHg 52%
    11:00 +29°C° 0 mm 1 mps 719 mmHg 48%
    12:00 +30°C° 0 mm 2 mps 719 mmHg 43%
    13:00 +31°C° 0 mm 2 mps 719 mmHg 38%
    14:00 +31°C° 0 mm 3 mps 719 mmHg 38%
    15:00 +31°C° 0 mm 3 mps 719 mmHg 37%
    16:00 +33°C° 0 mm 4 mps 719 mmHg 37%
    17:00 +30°C° 0 mm 3 mps 719 mmHg 46%
    18:00 +28°C° 0 mm 2 mps 719 mmHg 55%
    19:00 +26°C° 0 mm 1 mps 719 mmHg 64%
    20:00 +25°C° 0.1 mm 1 mps 719 mmHg 67%
    21:00 +23°C° 0.1 mm 1 mps 720 mmHg 70%
    22:00 +22°C° 0.1 mm 1 mps 720 mmHg 72%
    23:00 +21°C° 0.1 mm 1 mps 720 mmHg 75%

    21 July, Sunday

    Time Temperature Precipitation Wind Pressure Humidity
    00:00 +18°C° 0.1 mm 0 mps 720 mmHg 78%
    01:00 +18°C° 0.1 mm 0 mps 720 mmHg 81%
    02:00 +17°C° 0.5 mm 0 mps 720 mmHg 84%
    03:00 +19°C° 0.5 mm 1 mps 720 mmHg 88%
    04:00 +19°C° 0.5 mm 1 mps 720 mmHg 91%
    05:00 +19°C° 0.5 mm 1 mps 721 mmHg 91%
    06:00 +20°C° 0.5 mm 1 mps 721 mmHg 90%
    07:00 +21°C° 0.5 mm 1 mps 721 mmHg 90%
    08:00 +23°C° 0.1 mm 1 mps 722 mmHg 80%
    09:00 +25°C° 0.1 mm 1 mps 722 mmHg 71%
    10:00 +27°C° 0.1 mm 1 mps 723 mmHg 61%
    11:00 +28°C° 0.1 mm 2 mps 723 mmHg 57%
    12:00 +29°C° 0.1 mm 2 mps 723 mmHg 53%
    13:00 +30°C° 0.1 mm 2 mps 723 mmHg 48%
    14:00 +31°C° 0.1 mm 2 mps 723 mmHg 48%
    15:00 +31°C° 0.1 mm 2 mps 723 mmHg 47%
    16:00 +31°C° 0.1 mm 2 mps 723 mmHg 46%
    17:00 +30°C° 0 mm 2 mps 723 mmHg 55%
    18:00 +28°C° 0 mm 1 mps 723 mmHg 63%
    19:00 +27°C° 0 mm 1 mps 723 mmHg 71%
    20:00 +25°C° 0.4 mm 1 mps 723 mmHg 77%
    21:00 +21°C° 0.4 mm 0 mps 723 mmHg 82%
    22:00 +19°C° 0.4 mm 0 mps 723 mmHg 87%
    23:00 +18°C° 0.1 mm 0 mps 723 mmHg 89%

    22 July, Monday

    Time Temperature Precipitation Wind Pressure Humidity
    00:00 +18°C° 0.1 mm 0 mps 723 mmHg 90%
    01:00 +17°C° 0.1 mm 0 mps 723 mmHg 92%
    02:00 +17°C° 0 mm 0 mps 723 mmHg 92%
    03:00 +17°C° 0 mm 0 mps 723 mmHg 93%
    04:00 +16°C° 0 mm 0 mps 723 mmHg 93%
    05:00 +17°C° 0 mm 0 mps 723 mmHg 92%
    06:00 +18°C° 0 mm 0 mps 723 mmHg 91%
    07:00 +19°C° 0 mm 0 mps 723 mmHg 90%
    08:00 +21°C° 0 mm 0 mps 724 mmHg 80%
    09:00 +24°C° 0 mm 0 mps 724 mmHg 70%
    10:00 +28°C° 0 mm 1 mps 724 mmHg 61%
    11:00 +30°C° 0 mm 1 mps 724 mmHg 56%
    12:00 +31°C° 0 mm 1 mps 724 mmHg 51%
    13:00 +33°C° 0 mm 1 mps 724 mmHg 46%
    14:00 +33°C° 0 mm 1 mps 724 mmHg 45%
    15:00 +33°C° 0 mm 1 mps 723 mmHg 43%
    16:00 +33°C° 0 mm 1 mps 723 mmHg 42%
    17:00 +32°C° 0 mm 1 mps 723 mmHg 51%
    18:00 +30°C° 0 mm 2 mps 723 mmHg 60%
    19:00 +28°C° 0 mm 2 mps 723 mmHg 69%
    20:00 +26°C° 0 mm 2 mps 723 mmHg 76%
    21:00 +24°C° 0 mm 1 mps 723 mmHg 83%
    22:00 +23°C° 0 mm 1 mps 723 mmHg 90%
    23:00 +22°C° 0 mm 1 mps 723 mmHg 90%

    23 July, Tuesday

    Time Temperature Precipitation Wind Pressure Humidity
    00:00 +21°C° 0 mm 1 mps 722 mmHg 91%
    01:00 +21°C° 0 mm 1 mps 722 mmHg 92%
    02:00 +18°C° 0 mm 0 mps 722 mmHg 92%
    03:00 +18°C° 0 mm 0 mps 722 mmHg 92%
    04:00 +17°C° 0 mm 0 mps 722 mmHg 92%
    05:00 +18°C° 0 mm 0 mps 722 mmHg 90%
    06:00 +19°C° 0 mm 0 mps 721 mmHg 88%
    07:00 +20°C° 0 mm 0 mps 721 mmHg 86%
    08:00 +24°C° 0 mm 1 mps 722 mmHg 77%
    09:00 +27°C° 0 mm 1 mps 722 mmHg 68%
    10:00 +29°C° 0 mm 1 mps 722 mmHg 59%
    11:00 +31°C° 0 mm 1 mps 722 mmHg 53%
    12:00 +32°C° 0 mm 2 mps 721 mmHg 47%
    13:00 +34°C° 0 mm 2 mps 721 mmHg 41%
    14:00 +34°C° 0 mm 2 mps 721 mmHg 41%
    15:00 +35°C° 0 mm 2 mps 721 mmHg 40%
    16:00 +35°C° 0 mm 2 mps 720 mmHg 40%
    17:00 +32°C° 0 mm 2 mps 720 mmHg 50%
    18:00 +30°C° 0 mm 2 mps 720 mmHg 61%
    19:00 +28°C° 0 mm 2 mps 720 mmHg 71%
    20:00 +27°C° 0 mm 2 mps 720 mmHg 77%
    21:00 +25°C° 0 mm 1 mps 720 mmHg 84%
    22:00 +23°C° 0 mm 1 mps 720 mmHg 91%
    23:00 +22°C° 0 mm 1 mps 719 mmHg 91%
    Show more